マクノート彗星

P/2009 Q5 ( McNaught )

English version
Home page
Updated on September 3, 2011

---------------------------------------------------------------------

・ プロフィール

発見日 2009年8月31日
発見光度 17.0等
発見者 R. H. McNaught (Siding Spring Survey)

・ 写真集

・ 軌道要素

The following orbital elements are taken from MPC 68902:

Epoch 2009 Sept. 6.0 TT = JDT 2455080.5
T 2009 Sept. 8.5758 TT                                  MPC
q   2.918507             (2000.0)            P               Q
n   0.0483010      Peri.  209.2749      +0.9459633      -0.2359373
a   7.467334       Node   160.1393      +0.1743991      +0.9485162
e   0.609163       Incl.   40.9042      -0.2733832      -0.2113068
P  20.4
From 320 observations 2009 Aug. 31-2010 Feb. 18, mean residual 0".4.

・ 星図

・ 光度変化

        m1 = 10.2 + 5 logΔ + 10.0 log r

---------------------------------------------------------------------

軌道要素はMPCのEphemerides and Orbital Elementsに掲載されたものです。
星図はステラナビゲータ Ver.8 (アストロアーツ) で作成したものです。
光度グラフはComet for Windowsで作成したものです。

---------------------------------------------------------------------

Copyright(C) Seiichi Yoshida (comet@aerith.net). All rights reserved.